Regional Weather Roundup
Issued by NWS

Home | Current Version | Previous Version | Text Only | Print | Product List | Glossary On
Versions: 1 2 3 4 5 6 7 8 9 10 11 12 13 14 15 16 17 18 19 20 21 22 23 24 25 26 27 28 29 30 31 32 33 34 35 36 37 38 39 40 41 42 43 44 45 46 47 48 49 50
000
ASCA42 TJSJ 211410
RWRPR
PUERTO RICO/U.S. VIRGIN ISLANDS HOURLY WEATHER ROUNDUP
NATIONAL WEATHER SERVICE SAN JUAN PR
1000 AM AST SAT JAN 21 2017

PRZ001>002-007>008-010-211500-
PUERTO RICO

CITY           SKY/WX    TMP DP  RH WIND       PRES   REMARKS
SAN JUAN LMM   MOSUNNY   79  64  61 W3        30.05R
AGUADILLA      PTSUNNY   77  66  69 NE3       30.06R
CEIBA          SUNNY     79  68  69 VRB6      30.06R
$$

VIZ001>002-211500-
U.S. VIRGIN ISLANDS

CITY           SKY/WX    TMP DP  RH WIND       PRES   REMARKS
CHARLOTTE AMA  SUNNY     81  64  57 N5        30.03R
CHRISTIANSTED  MOSUNNY   81  64  57 N7        30.04R
$$

HOURLY WEATHER ROUNDUP FOR THE NEWS MEDIA

CITY           SKY/WX    TMP DP  RH WIND       PRES   REMARKS
ORLANDO        SUNNY     67  65  93 S10       29.96R
NEW YORK       CLOUDY    44  44 100 SW12      29.90S
NEWARK         CLOUDY    43  41  93 SW13      29.89S
CHICAGO        CLOUDY    48  47  96 S10       29.52S FOG
HARTFORD       CLOUDY    44  40  85 VRB3      29.85F
BOSTON         CLOUDY    41  38  89 SW8       29.84F
DALLAS         MOCLDY    55  52  89 SW9       29.59S
PHILADELPHIA   FOG       44  43  96 SW8       29.92S VSB 1/4
LOS ANGELES    CLEAR     49  41  74 NW6       29.77R
WASHINGTON DC  FOG       47  46  97 S5        29.90F VSB 1/8


USA.gov is the U.S. government's official web portal to all federal, state and local government web resources and services.